Regional Weather Roundup
Issued by NWS Bismarck, ND

Home | Current Version | Previous Version | Text Only | Print | Product List | Glossary On
Versions: 1 2 3 4 5 6 7 8 9 10 11 12 13 14 15 16 17 18 19 20 21 22 23 24 25 26 27 28 29 30 31 32 33 34 35 36 37 38 39 40 41 42 43 44 45 46 47 48 49 50
964
ASUS43 KBIS 260902
RWRBIS

NWR BROADCAST TEXT
NATIONAL WEATHER SERVICE BISMARCK ND
400 AM CDT FRI AUG 26 2016

NOTE: "FAIR" INDICATES FEW OR NO CLOUDS BELOW 12,000 FEET WITH NO
SIGNIFICANT WEATHER AND/OR OBSTRUCTIONS TO VISIBILITY.


CITY           SKY/WX    TMP DP  RH WIND       PRES   REMARKS
WILLISTON      FAIR      47  38  71 CALM      30.08S
MINOT          CLOUDY    58  46  64 SW9       30.05S
MINOT AFB      CLOUDY    55  46  71 SW7       30.03F
BISMARCK       FAIR      45  43  93 CALM      30.14S
DICKINSON      FAIR      46  38  73 S6        30.12S
GARRISON         N/A     49  46  90 CALM      30.09S
HETTINGER ARPT FAIR      47  39  74 CALM      30.16F
JAMESTOWN      FAIR      52  48  86 W7        30.11F
CARRINGTON     FAIR      52  48  87 SW7       30.12S
HAZEN          FAIR      45  39  81 SW3       30.13S
OAKES            N/A    N/A N/A N/A MISG        N/A
STANLEY        FAIR      50  46  87 W6        30.10S
$$

CITY           SKY/WX    TMP DP  RH WIND       PRES   REMARKS
GRAND FORKS    FAIR      48  45  89 SW7       30.06S
GRAND FORKS AF FAIR      50  48  92 W6        30.06S
DEVILS LAKE    FAIR      57  52  83 SW9       30.09R
FARGO          FAIR      54  49  83 SW9       30.10S
CAVALIER       FAIR      46  45  93 CALM      30.05S
GRAFTON        FAIR      48  46  93 CALM      30.07S
GWINNER        FAIR      52  52 100 SW8       30.14S
LANGDON        FAIR      45  43  93 S5        30.07S
ROLLA          FAIR      48  45  87 W10       30.07S
$$

CITY           SKY/WX    TMP DP  RH WIND       PRES   REMARKS
ABERDEEN       FAIR      46  44  93 CALM      30.16S
MOBRIDGE       FAIR      52  46  80 S5        30.14S
BUFFALO          N/A     49  40  71 S8        30.10F
RAPID CITY     LGT RAIN  51  50  96 SE8       30.17F
GLASGOW        FAIR      54  46  74 NW8       30.07F
SIDNEY         FAIR      46  39  76 CALM      30.10S
WOLF POINT     CLOUDY    57  44  62 CALM      30.07F
GLENDIVE       FAIR      47  39  74 CALM      30.11F
MILES CITY     MOCLDY    57  36  45 SE5       30.11S
BAKER          MOCLDY    47  39  74 E6        30.14F
$$

CITY           SKY/WX    TMP DP  RH WIND       PRES   REMARKS
BILLINGS       MOCLDY    54  40  59 NW5       30.12F
GREAT FALLS    CLOUDY    53  44  71 W6        30.19F
$$





USA.gov is the U.S. government's official web portal to all federal, state and local government web resources and services.